Regional Weather Roundup
Issued by NWS

Home | Current Version | Previous Version | Text Only | Print | Product List | Glossary Off
Versions: 1 2 3 4 5 6 7 8 9 10 11 12 13 14 15 16 17 18 19 20 21 22 23 24 25 26 27 28 29 30 31 32 33 34 35 36 37 38 39 40 41 42 43 44 45 46 47 48 49 50

000
ASUS43 KLOT 010006
RWRIL

ILLINOIS REGIONAL WEATHER ROUNDUP
NATIONAL WEATHER SERVICE CHICAGO/ROMEOVILLE IL
600 PM CST SAT JAN 31 2015

NOTE: "FAIR" INDICATES FEW OR NO CLOUDS BELOW 12,000 FEET WITH NO
SIGNIFICANT WEATHER AND/OR OBSTRUCTIONS TO VISIBILITY.

* THESE STATIONS ARE NOT UNDER NWS QUALITY CONTROL. THEY ALSO MAY NOT
  REPORT WEATHER SUCH AS PRECIPITATION OR FOG.

ILZ001-002-007-009-015-016-024-010100-
NORTHWEST ILLINOIS

CITY           SKY/WX    TMP DP  RH WIND       PRES   REMARKS
MOLINE         LGT RAIN  34  33  96 S3        30.14F FOG
6HR MIN TEMP:  34; 6HR MAX TEMP:  37; 6HR PCP:  0.08;

STERLING*        N/A    N/A N/A N/A MISG        N/A
SAVANNA*       DRZL/FOG  34  33  95 SE3       30.15S VSB 1
$$

ILZ003-004-008-010-011-017-018-010100-
NORTH CENTRAL ILLINOIS

CITY           SKY/WX    TMP DP  RH WIND       PRES   REMARKS
ROCKFORD       CLOUDY    34  26  72 CALM      30.18R
6HR MIN TEMP:  34; 6HR MAX TEMP:  36;

FREEPORT*      CLOUDY    32  26  77 E3        30.17R
ROCHELLE*      CLOUDY    32  32  99 SW7       30.17R FOG     WCI  26
DE KALB*       CLOUDY    32  29  90 SW3       30.16S
PERU*          DRIZZLE   36  35  97 SW9       30.18R WCI  29
$$

ILZ005-006-012>014-019>023-010100-
NORTHEAST ILLINOIS

CITY           SKY/WX    TMP DP  RH WIND       PRES   REMARKS
CHICAGO-OHARE  CLOUDY    35  27  72 CALM      30.17R
6HR MIN TEMP:  34; 6HR MAX TEMP:  36;

CHICAGO-MIDWAY CLOUDY    37  28  70 CALM      30.18S
6HR MIN TEMP:  37; 6HR MAX TEMP:  39;

AURORA         CLOUDY    35  30  82 SW5       30.17S WCI  31
6HR MIN TEMP:  35; 6HR MAX TEMP:  37;

LANSING*       CLOUDY    35  31  85 W8        30.19R WCI  29
JOLIET*        FOG       34  33  96 CALM      30.18F VSB 1
WAUKEGAN       CLOUDY    32  25  75 E3        30.17R
6HR MIN TEMP:  32; 6HR MAX TEMP:  37;

DUPAGE AIRPORT CLOUDY    34  28  79 CALM      30.16R
6HR MIN TEMP:  33; 6HR MAX TEMP:  36;

KANKAKEE*      CLOUDY    35  33  92 S9        30.20S WCI  28
WHEELING       CLOUDY    35  25  66 CALM      30.19R
6HR MIN TEMP:  35; 6HR MAX TEMP:  36;

MORRIS*        DRIZZLE   34  34 100 CALM      30.17S
ROMEOVILLE*    CLOUDY    34  32  92 SW3       30.17S FOG
NORTHERLY ISL    N/A     34  26  73 E2          N/A
$$

LMZ740>746-010100-
SOUTHERN LAKE MICHIGAN

STATION/POSITION SKY/WX   TEMP    WIND        PRES    VSBY  WAVE
                          AIR SEA DIR/SP/G                  HT/PER
                          (F)     (DEG/KT/KT) (MB)    (MI)  (FT/S)
WAUKEGAN HARBOR            32      90/  3/  4   N/A
HARRISON CRIB              34     360/  4/  5   N/A
BURNHAM HARBOR             34     120/  2/  7   N/A
CALUMET HARBOR             37     250/  3/  6   N/A
MICHIGAN CITY              34     250/  3/  4   N/A
$$

ILZ025>027-034>036-040-047-049-050-058-095>099-010100-
WEST-CENTRAL ILLINOIS

CITY           SKY/WX    TMP DP  RH WIND       PRES   REMARKS
QUINCY         LGT RAIN  34  31  88 S8        30.15F FOG     WCI  27
GALESBURG*     RAIN      33  33  99 SE5       30.16S WCI  29
MACOMB*        LGT RAIN  33  33 100 CALM      30.18F
JACKSONVILLE*  CLOUDY    36  33  88 E5        30.18F WCI  32
PITTSFIELD*    DRIZZLE   37  32  82 S5        30.18S WCI  33
$$

ILZ028>032-037-038-041>044-048-051>054-059>061-010100-
CENTRAL ILLINOIS

CITY           SKY/WX    TMP DP  RH WIND       PRES   REMARKS
PONTIAC        RAIN      35  34  94 SW9       30.20S WCI  28
BLOOMINGTON    LGT SNOW  33  33 100 SW7       30.20F FOG     WCI  27
DECATUR        MIX PCPN  35  33  92 SE3       30.21F FOG
PEORIA         LGT RAIN  34  32  92 S3        30.19F FOG
6HR MIN TEMP:  34; 6HR MAX TEMP:  40; 6HR PCP:  0.10;

LACON*         LGT RAIN  33  32  96 S5        30.18F WCI  29
LINCOLN*       RAIN      35  33  92 CALM      30.21F
SPRINGFIELD    CLOUDY    35  33  92 S8        30.20S WCI  29
6HR MIN TEMP:  35; 6HR MAX TEMP:  39; 6HR PCP:  0.06;

TAYLORVILLE    CLOUDY    34  32  93 SE5       30.21F WCI  30
$$

ILZ033-039-045-046-055>057-062-063-010100-
EAST-CENTRAL ILLINOIS

CITY           SKY/WX    TMP DP  RH WIND       PRES   REMARKS
CHAMPAIGN      LGT SNOW  33  31  92 S7        30.23S FOG     WCI  27
DANVILLE*      RAIN      33  31  93 SW6       30.21R WCI  27
RANTOUL*       RAIN      35  33  92 SW8       30.22R WCI  29
MATTOON        LGT RAIN  34  32  92 S5        30.23F FOG     WCI  30
PARIS*         LGT RAIN  34  32  93 S5        30.26S WCI  30
$$

ILZ079-100>102-010100-
SOUTHWEST ILLINOIS

CITY           SKY/WX    TMP DP  RH WIND       PRES   REMARKS
ALTON          CLOUDY    39  28  65 E5        30.19F
BELLEVILLE     CLOUDY    40  28  64 SE6       30.20F
CAHOKIA*       CLOUDY    41  29  62 E7        30.18F
SPARTA*        CLOUDY    39  27  62 SE6       30.20F WCI  35
$$

ILZ064>066-069>071-074>076-080>082-084>086-088>090-092>094-010100-
SOUTH-CENTRAL ILLINOIS

CITY           SKY/WX    TMP DP  RH WIND       PRES   REMARKS
CARBONDALE     CLOUDY    40  26  57 E8        30.23F
6HR MIN TEMP:  39; 6HR MAX TEMP:  43;

CAIRO*         CLOUDY    43  28  54 E6        30.23F
EFFINGHAM*     CLOUDY    36  29  75 SE3       30.24R
MARION         CLOUDY    41  27  56 S9        30.26S
MT. VERNON     CLOUDY    39  27  60 SE3       30.24S
CENTRALIA*     CLOUDY    38  28  65 S5        30.23F WCI  35
SALEM*         CLOUDY    41  28  59 S3        30.23F
METROPOLIS*    CLOUDY    41  26  55 E3        30.23F
$$

ILZ067-068-072-073-078-083-087-091-010100-
SOUTHEAST ILLINOIS

CITY           SKY/WX    TMP DP  RH WIND       PRES   REMARKS
LAWRENCEVILLE  CLOUDY    37  32  82 N10       30.24F WCI  30
FLORA*         CLOUDY    37  31  79 SE5       30.25F WCI  33
FAIRFIELD*     CLOUDY    39  30  69 S5        30.25F
HARRISBURG*    CLOUDY    39  32  75 CALM      30.26F
ROBINSON*      CLOUDY    35  32  87 S3        30.28S
CARMI*         CLOUDY    40  33  77 SE6       30.27F
$$

ABBREVIATIONS USED IN REMARKS
   TC - TEMPERATURE IN CELSIUS
  WCI - WIND CHILL INDEX
   HX - HEAT INDEX
  VSB - VISIBILITY
$$




USA.gov is the U.S. government's official web portal to all federal, state and local government web resources and services.